Indianapolis, IN

6:15 AM EDT on August 21, 2019 (GMT -0400)
Indianapolis International

Weather History for KIND - July, 2019

Change the Weather History Date:

Monday, July 22, 2019

  Actual Average Record
Temperature  
Mean Temperature 70 °F 75 °F  
Max Temperature 76 °F 85 °F 106 °F (1901)
Min Temperature 64 °F 66 °F 49 °F (1947)
Degree Days  
Heating Degree Days 0 0  
Month to date heating degree days 0 0  
Since 1 June heating degree days 9 16  
Since 1 July heating degree days 0 0  
Cooling Degree Days 5 10  
Month to date cooling degree days 330 235  
Year to date cooling degree days 644 545  
Since 1 June cooling degree days 533 461  
Growing Degree Days 20 (Base 50)    
Moisture  
Dew Point 66 °F    
Average Humidity 72    
Maximum Humidity 93    
Minimum Humidity 50    
Precipitation  
Precipitation 0.02 in 0.14 in 1.82 in (2004)
Month to date precipitation 3.18 3.39  
Year to date precipitation 32.33 25.04  
Snow  
Snow 0.00 in 0.00 in 0.00 in ()
Month to date snowfall 0.0 0.0  
Since 1 June snowfall 0.0 0.0  
Since 1 July snowfall 0.0 0.0  
Snow Depth 0.00 in    
Sea Level Pressure  
Sea Level Pressure 29.95 in    
Wind  
Wind Speed 11 mph (NNW)    
Max Wind Speed 20 mph    
Max Gust Speed 25 mph    
Visibility 10 miles    
Events Rain    
T = Trace of Precipitation, MM = Missing Value Source: NWS Daily Summary

Daily Weather History Graph

Daily Weather History Graph

Search for Another Location

Airport or City:

Astronomy

Jul. 22, 2019 Rise Set
Actual Time 6:35 AM EDT 9:07 PM EDT
Civil Twilight 6:04 AM EDT 9:38 PM EDT
Nautical Twilight 5:25 AM EDT 10:17 PM EDT
Astronomical Twilight 4:42 AM EDT 11:00 PM EDT
Moon 12:03 AM EDT (7/22) 11:50 AM EDT (7/22)
Length of Visible Light 15h 34m
Length of Day
14h 32m
Waning Gibbous, 72% of the Moon is Illuminated
Jul 22
Waning Gibbous
Jul 24
Last Quarter
Jul 31
New
Aug 7
First Quarter
Aug 15
Full

Hourly Weather History & Observations

Time (EDT) Temp. Dew Point Humidity Pressure Visibility Wind Dir Wind Speed Gust Speed Precip Events Conditions
12:03 AM 73.0 °F 71.1 °F 93% 29.93 in 10.0 mi Calm Calm - N/A   Overcast
12:49 AM 73.4 °F 71.6 °F 94% 29.93 in 10.0 mi NW 4.6 mph - N/A   Overcast
12:54 AM 73.0 °F 71.1 °F 93% 29.91 in 10.0 mi NW 4.6 mph - N/A   Overcast
1:43 AM 73.0 °F 71.1 °F 93% 29.93 in 10.0 mi NNW 6.9 mph - N/A   Overcast
1:54 AM 73.0 °F 71.1 °F 93% 29.90 in 10.0 mi NW 5.8 mph - N/A   Overcast
2:54 AM 73.0 °F 70.0 °F 90% 29.89 in 10.0 mi NW 6.9 mph - N/A   Overcast
3:54 AM 73.0 °F 70.0 °F 90% 29.86 in 10.0 mi North 5.8 mph - N/A   Mostly Cloudy
4:54 AM 72.0 °F 70.0 °F 93% 29.86 in 10.0 mi NW 9.2 mph - N/A   Mostly Cloudy
5:14 AM 72.0 °F 70.0 °F 93% 29.89 in 10.0 mi NW 9.2 mph - N/A   Mostly Cloudy
5:54 AM 73.0 °F 70.0 °F 90% 29.88 in 10.0 mi NNW 6.9 mph - N/A   Mostly Cloudy
6:01 AM 73.0 °F 70.0 °F 90% 29.90 in 10.0 mi NNW 6.9 mph - N/A   Mostly Cloudy
6:54 AM 73.0 °F 70.0 °F 90% 29.90 in 10.0 mi NNW 10.4 mph - N/A   Overcast
7:54 AM 73.0 °F 69.1 °F 87% 29.91 in 10.0 mi NNW 10.4 mph - N/A   Overcast
8:54 AM 72.0 °F 71.1 °F 97% 29.92 in 3.0 mi NNW 9.2 mph - 0.00 in Rain Light Rain
9:18 AM 72.0 °F 70.0 °F 93% 29.94 in 8.0 mi North 10.4 mph - 0.01 in Rain Light Rain
9:41 AM 72.0 °F 69.1 °F 91% 29.95 in 10.0 mi North 12.7 mph - 0.01 in   Overcast
9:54 AM 71.1 °F 69.1 °F 93% 29.93 in 10.0 mi North 13.8 mph - 0.01 in   Overcast
10:54 AM 70.0 °F 66.9 °F 90% 29.96 in 10.0 mi North 11.5 mph - N/A   Overcast
11:25 AM 70.0 °F 66.0 °F 87% 29.96 in 10.0 mi North 13.8 mph - N/A   Overcast
11:49 AM 71.6 °F 66.2 °F 83% 29.96 in 10.0 mi North 10.4 mph - N/A   Overcast
11:54 AM 71.1 °F 66.0 °F 84% 29.95 in 10.0 mi North 12.7 mph - N/A   Overcast
12:54 PM 70.0 °F 66.0 °F 87% 29.96 in 10.0 mi NNE 12.7 mph - 0.00 in Rain Light Rain
1:36 PM 71.1 °F 66.0 °F 84% 29.98 in 10.0 mi North 9.2 mph - 0.01 in   Overcast
1:54 PM 71.1 °F 66.0 °F 84% 29.97 in 10.0 mi North 6.9 mph - 0.01 in Rain Light Rain
2:23 PM 71.1 °F 64.9 °F 81% 29.98 in 10.0 mi NNE 10.4 mph - 0.00 in   Overcast
2:54 PM 72.0 °F 66.0 °F 81% 29.96 in 10.0 mi NNE 10.4 mph - 0.00 in   Overcast
3:54 PM 72.0 °F 64.9 °F 78% 29.97 in 10.0 mi North 10.4 mph - 0.00 in Rain Light Rain
4:54 PM 73.9 °F 64.0 °F 71% 29.98 in 10.0 mi NNW 11.5 mph - 0.00 in   Mostly Cloudy
5:54 PM 75.9 °F 62.1 °F 62% 29.98 in 10.0 mi NNW 13.8 mph 23.0 mph N/A   Mostly Cloudy
6:54 PM 75.0 °F 55.9 °F 51% 29.98 in 10.0 mi North 18.4 mph - N/A   Scattered Clouds
7:54 PM 73.0 °F 57.0 °F 57% 29.99 in 10.0 mi North 11.5 mph - N/A   Scattered Clouds
8:54 PM 70.0 °F 54.0 °F 57% 30.01 in 10.0 mi NNW 12.7 mph - N/A   Partly Cloudy
9:54 PM 68.0 °F 55.0 °F 63% 30.02 in 10.0 mi NNW 10.4 mph - N/A   Clear
10:54 PM 66.0 °F 55.0 °F 68% 30.04 in 10.0 mi NNW 11.5 mph - N/A   Partly Cloudy
11:54 PM 64.0 °F 55.0 °F 73% 30.04 in 10.0 mi NNW 9.2 mph - N/A   Partly Cloudy